Torna al catalogo

DELTA 1 DEB

AttivoPO
NORAD 7893·DEBRIS·🇺🇸 United States

Lanciato Jul 23, 1972 da Vandenberg Space Force Base

Loading…

Prossimi Passaggi (prossime 24 ore)

TLE

AggiornatoSource: Space-Track

Epoca: Sep 14, 2026, 00:39 UTC

1 07893U 72058BK  26257.02758389  .00000314  00000-0  19056-3 0  9995
2 07893  97.7744 288.1264 0394079 116.9697 247.2274 13.78296281544096

Traccia DELTA 1 DEB in tempo reale con AllMySat

Download on the App Store